Regional Weather Roundup
Issued by NWS

Home | Current Version | Previous Version | Text Only | Print | Product List | Glossary On
Versions: 1 2 3 4 5 6 7 8 9 10 11 12 13 14 15 16 17 18 19 20 21 22 23 24 25 26 27 28 29 30 31 32 33 34 35 36 37 38 39 40 41 42 43 44 45 46 47 48 49 50
000
ASUS43 KBIS 270159
RWRND

NORTH DAKOTA REGIONAL WEATHER ROUNDUP
NATIONAL WEATHER SERVICE BISMARCK ND
800 PM CST WED NOV 26 2014

NOTE: "FAIR" INDICATES FEW OR NO CLOUDS BELOW 12,000 FEET WITH NO
SIGNIFICANT WEATHER AND/OR OBSTRUCTIONS TO VISIBILITY.


NDZ001>003-009>011-017-270300-
NORTHWEST NORTH DAKOTA

CITY           SKY/WX    TMP DP  RH WIND       PRES   REMARKS
WILLISTON      CLOUDY     9   3  77 NE5       30.38S WCI   1
MINOT          MOCLDY   -12 -15  86 CALM      30.44S
$$

NDZ018>021-031>035-040>046-270300-
SOUTHWEST NORTH DAKOTA

CITY           SKY/WX    TMP DP  RH WIND       PRES   REMARKS
BISMARCK       MOCLDY    -6 -11  79 NE6       30.46R WCI -19
GARRISON         N/A    -10 -15  78 NE5       30.41F WCI -22
HETTINGER ARPT MOCLDY    13  10  88 SE6       30.32S WCI   4
$$

NDZ004>008-012>016-024-026-027-054-270300-
NORTHEAST NORTH DAKOTA

CITY           SKY/WX    TMP DP  RH WIND       PRES   REMARKS
GRAND FORKS    CLEAR     -9 -14  78 N7        30.53S WCI -24
DEVILS LAKE    MOCLDY    -4 -17  54 CALM      30.45R
$$

NDZ022-023-025-028>030-036>039-047>053-270300-
SOUTHEAST NORTH DAKOTA

CITY           SKY/WX    TMP DP  RH WIND       PRES   REMARKS
FARGO          PTCLDY    -5 -11  75 N7        30.53R WCI -19
JAMESTOWN      MOCLDY   -19 -21  90 NW5       30.46S WCI -32
$$




USA.gov is the U.S. government's official web portal to all federal, state and local government web resources and services.